Home   Weather   Salisbury   Past weeks
Flag for United Kingdom

Past Weather in Salisbury, England, United Kingdom — Yesterday and Last 2 Weeks

Now
66 °F

Partly sunny.


Feels Like: 66 °F
Forecast: 70 / 49 °F
Wind: 12 mph from East

Location: Boscombe Down

Current Time: Apr 18, 2019 at 3:43:12 pm

Latest Report: Apr 18, 2019 at 2:50 pm


Visibility: N/A

Pressure: 30.18 "Hg

Humidity: 56%

Dew Point: 50 °F

Location of SalisburyLocation

Past Weather in Salisbury — Graph

°F

Salisbury Temperature Yesterday

Maximum temperature yesterday: 63 °F (at 3:50 pm)
Minimum temperature yesterday: 39 °F (at 6:50 am)
Average temperature yesterday: 50 °F

High & Low Weather Summary for the Past Weeks

 TemperatureHumidityPressure
High63 °F (Apr 17, 3:50 pm)100% (Apr 4, 3:50 am)30.33 "Hg (Apr 4, 3:50 am)
Low32 °F (Apr 11, 3:50 am)35% (Apr 15, 4:50 pm)29.21 "Hg (Apr 4, 9:50 am)
Average46 °F77%29.94 "Hg
* Reported Apr 3 12:50 pm — Apr 18 12:50 pm, Salisbury. Weather by CustomWeather, © 2019

Note: Actual official high and low records may vary slightly from our data, if they occured in-between our weather recording intervals... More about our weather records

Advertising

Salisbury Weather History for the Previous 24 Hours

Scroll right to see more
 ConditionsComfort  
Time TempWeatherWind HumidityBarometerVisibility
12:50 pm
Thu, Apr 18
63 °FPartly sunny.13 mph64%30.18 "Hg5 mi
11:50 am59 °FPartly sunny.12 mph72%30.18 "Hg4 mi
10:50 am59 °FPartly sunny.14 mph72%30.18 "Hg4 mi
10:30 am57 °FPartly sunny.13 mph77%30.18 "Hg3 mi
9:50 am55 °FPartly sunny.13 mph77%30.18 "Hg3 mi
9:34 am54 °FPartly sunny.14 mph82%30.18 "Hg2 mi
8:50 am52 °FPartly sunny.13 mph88%30.18 "Hg2 mi
7:50 am48 °FPartly sunny.10 mph94%30.15 "Hg1 mi
6:50 am48 °FPartly sunny.12 mph94%30.15 "Hg1 mi
5:50 am46 °FFog.9 mph93%30.12 "Hg1 mi
4:50 am48 °FPassing clouds.9 mph94%30.12 "Hg1 mi
3:50 am48 °FHaze.12 mph87%30.12 "Hg1 mi
2:50 am48 °FHaze.10 mph87%30.12 "Hg2 mi
1:50 am48 °FHaze.10 mph87%30.12 "Hg4 mi
12:50 am48 °FHaze.9 mph87%30.12 "Hg4 mi
11:50 pm
Wed, Apr 17
48 °FHaze.7 mph82%30.12 "Hg2 mi
10:50 pm48 °FHaze.6 mph87%30.12 "Hg2 mi
9:50 pm50 °FHaze.3 mph88%30.12 "Hg2 mi
8:50 pm48 °FHaze.3 mph87%30.12 "Hg2 mi
7:50 pm52 °FHaze.7 mph82%30.09 "Hg3 mi
6:50 pm57 °FHaze.6 mph67%30.07 "Hg4 mi
5:50 pm63 °FPartly sunny.7 mph56%30.07 "Hg6 mi
4:50 pm61 °FPartly sunny.8 mph59%30.07 "Hg5 mi
3:50 pm63 °FPartly sunny.8 mph56%30.07 "Hg5 mi
Weather by CustomWeather, © 2019

See weather overview